Torna al catalogo

COSMOS 1510

AttivoMilitareLEO
NORAD 14521·PAYLOAD·🇷🇺 Russia

Lanciato Nov 24, 1983 da Plesetsk Cosmodrome

Loading…

Prossimi Passaggi (prossime 24 ore)

TLE

AggiornatoSource: Space-Track

Epoca: Sep 14, 2026, 19:34 UTC

1 14521U 83115A   26257.81575168 -.00000001  00000-0  12304-3 0  9999
2 14521  73.6182 190.7093 0027919 204.1421 182.5528 12.41203986940160

Traccia COSMOS 1510 in tempo reale con AllMySat

Download on the App Store